Kingston, Jamaica

2:15 PM EST on December 09, 2016 (GMT -0500)
Norman Manley International

Weather History for MKJP - December, 2013

Change the Weather History Date:

Monday, December 9, 2013

  Actual Average Record
Temperature  
Mean Temperature 79 °F -  
Max Temperature 86 °F 84 °F 90 °F (2012)
Min Temperature 72 °F 75 °F 71 °F (2010)
Cooling Degree Days 14    
Growing Degree Days 29 (Base 50)    
Moisture  
Dew Point 71 °F    
Average Humidity 76    
Maximum Humidity 94    
Minimum Humidity 25    
Precipitation  
Precipitation 0.67 in - - ()
Sea Level Pressure  
Sea Level Pressure 29.97 in    
Wind  
Wind Speed 7 mph ()    
Max Wind Speed 28 mph    
Max Gust Speed 39 mph    
Visibility 7.0 miles    
Events Rain , Thunderstorm    
Averages and records for this station are not official NWS values.
T = Trace of Precipitation, MM = Missing Value Source: Averaged Metar Reports

Daily Weather History Graph

Daily Weather History Graph

Search for Another Location

Airport or City:

Trip Planner

Search our weather history database for the weather conditions in past years. The results will help you decide how hot, cold, wet, or windy it might be!

Date:

Astronomy

Dec. 09, 2013 Rise Set
Actual Time 6:27 AM EST 5:32 PM EST
Civil Twilight 6:03 AM EST 5:55 PM EST
Nautical Twilight 5:36 AM EST 6:22 PM EST
Astronomical Twilight 5:09 AM EST 6:49 PM EST
Moon 12:07 PM EST No Moon Set
Length of Visible Light 11h 52m
Length of Day
11h 05m
Waxing Crescent, 51% of the Moon is Illuminated
Dec 9
Waxing Crescent
Dec 17
Full
Dec 25
Last Quarter
Jan 1
New
Jan 7
First Quarter

Hourly Weather History & Observations

Time (EST) Temp. Heat Index Dew Point Humidity Pressure Visibility Wind Dir Wind Speed Gust Speed Precip Events Conditions
12:00 AM 78.8 °F - 71.6 °F 78% 29.98 in 6.2 mi North 5.8 mph - N/A   Partly Cloudy
1:00 AM 76 °F - 72 °F 85% 29.99 in 12 mi NNW 6.9 mph - -   Haze
1:00 AM 77.0 °F - 71.6 °F 83% 29.98 in 6.2 mi NNW 6.9 mph - N/A   Partly Cloudy
2:00 AM 78.8 °F - 69.8 °F 74% 29.98 in 6.2 mi North 5.8 mph - N/A   Partly Cloudy
3:00 AM 77.0 °F - 68.0 °F 74% 29.95 in 6.2 mi North 6.9 mph - N/A   Partly Cloudy
4:00 AM 76 °F - 68 °F 69% 29.96 in 12 mi 2.3 mph - -   Haze
4:00 AM 77.0 °F - 68.0 °F 74% 29.95 in 6.2 mi Variable 2.3 mph - N/A   Partly Cloudy
5:00 AM 77.0 °F - 69.8 °F 78% 29.95 in 6.2 mi Variable 2.3 mph - N/A   Partly Cloudy
6:00 AM 77.0 °F - 71.6 °F 83% 29.95 in 6.2 mi North 4.6 mph - N/A   Partly Cloudy
7:00 AM 77 °F - 70 °F 73% 29.99 in 14 mi NNE 6.9 mph - -   Haze
7:00 AM 77.0 °F - 69.8 °F 78% 29.98 in 6.2 mi NNE 6.9 mph - N/A   Partly Cloudy
8:00 AM 80.6 °F 83.9 °F 69.8 °F 70% 29.98 in 6.2 mi NW 3.5 mph - N/A   Partly Cloudy
9:00 AM 82.4 °F 86.3 °F 69.8 °F 66% 30.01 in 6.2 mi West 3.5 mph - N/A   Partly Cloudy
10:00 AM 83 °F - 71 °F 58% 30.02 in 14 mi WSW 6.9 mph - -   Haze
10:00 AM 82.4 °F 87.2 °F 71.6 °F 70% 30.01 in 6.2 mi WSW 6.9 mph - N/A   Partly Cloudy
11:00 AM 84.2 °F 89.6 °F 71.6 °F 66% 29.98 in 6.2 mi SSW 8.1 mph - N/A   Partly Cloudy
12:00 PM 84.2 °F 89.6 °F 71.6 °F 66% 29.98 in 6.2 mi SW 10.4 mph - N/A   Scattered Clouds
1:00 PM 86 °F - 74 °F 59% 29.94 in 14 mi SW 10.4 mph - -   Haze
1:00 PM 86.0 °F 93.4 °F 73.4 °F 66% 29.92 in 6.2 mi SW 10.4 mph - N/A   Partly Cloudy
2:00 PM 86.0 °F 90.4 °F 69.8 °F 58% 29.92 in 6.2 mi SW 8.1 mph - N/A   Scattered Clouds
3:00 PM 86.0 °F 91.8 °F 71.6 °F 62% 29.92 in 6.2 mi ESE 9.2 mph - N/A   Scattered Clouds
3:10 PM 78.8 °F - 73.4 °F 83% 29.92 in 5.0 mi SE 27.6 mph 39.1 mph N/A Rain Light Rain Showers
4:00 PM 80 °F - 72 °F 72% 29.93 in 6 mi SE 11.5 mph - - Rain Light Rain Showers
4:00 PM 80.6 °F 85.4 °F 73.4 °F 79% 29.92 in 6.2 mi SE 11.5 mph - N/A   Mostly Cloudy
5:00 PM 80.6 °F 84.6 °F 71.6 °F 74% 29.95 in 6.2 mi ESE 11.5 mph - N/A   Mostly Cloudy
6:00 PM 78.8 °F - 75.2 °F 89% 29.95 in 6.2 mi NNW 10.4 mph - N/A   Scattered Clouds
7:00 PM 78 °F - 75 °F 87% 29.97 in 9 mi ESE 17.3 mph - - Rain Light Rain
7:00 PM 78.8 °F - 75.2 °F 89% 29.95 in 6.2 mi ESE 17.3 mph - N/A Rain Light Rain
8:00 PM 73.4 °F - 35.6 °F 25% 30.01 in 1.9 mi SE 12.7 mph - N/A Rain , Thunderstorm Rain Showers
8:12 PM 73.4 °F - 71.6 °F 94% 30.01 in 5.0 mi SSE 23.0 mph - N/A Rain Light Rain Showers
9:00 PM 75.2 °F - 71.6 °F 89% 30.01 in 6.2 mi South 4.6 mph - N/A   Mostly Cloudy
10:00 PM 75 °F - 73 °F 90% 30.02 in 9 mi NW 3.5 mph - - Rain Light Rain Showers
10:00 PM 75.2 °F - 73.4 °F 94% 30.01 in 6.2 mi NW 3.5 mph - N/A   Mostly Cloudy
10:35 PM 73.4 °F - 71.6 °F 94% 30.01 in 1.2 mi South 13.8 mph - N/A Rain Light Rain Showers
11:00 PM 75.2 °F - 73.4 °F 94% 30.01 in 6.2 mi East 13.8 mph - N/A Rain Light Rain Showers